Home   Weather   Entebbe   Past weeks

Flag for Uganda Past Weather in Entebbe, Uganda — Yesterday and Last 2 Weeks

Now
77 °F

Partly sunny.


Feels Like: 79 °F
Forecast: 64 / 75 °F
Wind: 9 mph from South

Location: Entebbe Airport

Current Time: Sep 28, 2016 at 4:49:45 PM

Latest Report: Sep 28, 2016 at 4:00 PM


Visibility: N/A

Pressure: 30.01 "Hg (26.27 "Hg at 1160m altitude)

Humidity: 74%

Dew Point: 68 °F

Location of EntebbeLocation

Past Weather in Entebbe — Graph

°F

Entebbe Temperature Yesterday

Maximum temperature yesterday: 79 °F (at 12:00 PM)
Minimum temperature yesterday: 66 °F (at 3:00 AM)
Average temperature yesterday: 71 °F

High & Low Weather Summary for the Past Weeks

 TemperatureHumidityPressure
High86 °F (Sep 14, 3:00 PM)100% (Sep 19, 3:00 AM)30.27 "Hg (Sep 19, 3:00 AM)
Low57 °F (Sep 24, 11:00 PM)49% (Sep 14, 3:00 PM)29.92 "Hg (Sep 25, 4:00 PM)
Average72 °F81%30.05 "Hg
* Reported Sep 13 3:00 PM — Sep 28 3:00 PM, Entebbe, Weather by CustomWeather, © 2016

Note: Actual official high and low records may vary slightly from our data, if they occured in-between our weather recording intervals... More about our weather records

Advertising

Entebbe Weather History for the Previous 24 Hours

Scroll right to see more
 ConditionsComfort  
Time TempWeatherWind HumidityBarometerVisibility
3:00 PM
Wed, Sep 28
75 °FPartly sunny.9 mph78%30.04 "HgN/A
2:00 PM77 °FPartly sunny.12 mph74%30.07 "HgN/A
1:00 PM79 °FPartly sunny.13 mph70%30.09 "HgN/A
12:00 PM77 °FPartly sunny.6 mph69%30.12 "HgN/A
11:00 AM75 °FPartly sunny.2 mph74%30.15 "HgN/A
10:00 AM75 °FScattered clouds.3 mph74%30.12 "Hg6 mi
9:00 AM72 °FBroken clouds.No wind83%30.12 "Hg6 mi
8:00 AM68 °FBroken clouds.6 mph88%30.12 "Hg6 mi
7:00 AM68 °FBroken clouds.9 mph88%30.09 "Hg6 mi
6:00 AM68 °FMild.10 mph88%30.07 "Hg6 mi
5:00 AM68 °FMild.8 mph88%30.07 "Hg6 mi
4:00 AM68 °FPartly cloudy.12 mph88%30.04 "Hg6 mi
3:00 AM68 °FMild.9 mph88%30.04 "Hg6 mi
2:00 AM68 °FMild.12 mph94%30.07 "Hg6 mi
1:00 AM68 °FPassing clouds.6 mph94%30.09 "Hg6 mi
11:00 PM
Tue, Sep 27
70 °FPassing clouds.6 mph88%30.09 "Hg6 mi
10:00 PM72 °FPartly cloudy.12 mph83%30.09 "Hg6 mi
9:00 PM70 °FPartly cloudy.8 mph88%30.07 "Hg6 mi
8:00 PM70 °FPartly cloudy.9 mph88%30.04 "Hg6 mi
7:00 PM70 °FLight rain. Partly cloudy.5 mph83%30.04 "Hg6 mi
6:00 PM70 °FLight rain. Broken clouds.6 mph83%30.01 "HgN/A
5:00 PM73 °FThundershowers. Broken clouds.3 mph83%30.01 "Hg6 mi
4:00 PM72 °FThundershowers. Partly sunny.6 mph88%30.01 "Hg6 mi
Weather by CustomWeather, © 2016

See weather overviewHow to use our weather pages